Weather History for Torrington, WY

Change the Weather History Date:

Wednesday, January 9, 2013

  Actual Average Record
Temperature  
Mean Temperature 45 °F 28 °F  
Max Temperature 61 °F 41 °F 61 °F (2013)
Min Temperature 28 °F 14 °F 1 °F (2010)
Degree Days  
Heating Degree Days 20 37  
Month to date heating degree days 325 337  
Since 1 July heating degree days 2807 3093  
Cooling Degree Days 0 0  
Month to date cooling degree days 0 0  
Year to date cooling degree days 0 0  
Moisture  
Dew Point 19 °F    
Average Humidity 43    
Maximum Humidity 69    
Minimum Humidity 17    
Precipitation  
Precipitation 0.00 in 0.01 in 0.01 in (2006)
Month to date precipitation T 0.08  
Year to date precipitation T 0.08  
Sea Level Pressure  
Sea Level Pressure 30.11 in    
Wind  
Wind Speed 12 mph (South)    
Max Wind Speed 29 mph    
Max Gust Speed 36 mph    
Visibility 10 miles    
Events      
T = Trace of Precipitation, MM = Missing Value Source: NWS Daily Summary

Daily Weather History Graph

Daily Weather History Graph

Search for Another Location

Airport:

Trip Planner

Search our weather history database for the weather conditions in past years. The results will help you decide how hot, cold, wet, or windy it might be!

Date:

Astronomy

Jan. 09, 2013 Rise Set
Actual Time 7:24 AM MST 4:43 PM MST
Civil Twilight 6:53 AM MST 5:15 PM MST
Nautical Twilight 6:18 AM MST 5:49 PM MST
Astronomical Twilight 5:44 AM MST 6:23 PM MST
Moon 5:06 AM MST (1/9) 2:47 PM MST (1/9)
Length of Visible Light 10h 21m
Length of Day
9h 19m
Waning Crescent, 6% of the Moon is Illuminated
Jan 9
Waning Crescent
Jan 11
New
Jan 18
First Quarter
Jan 26
Full
Feb 3
Last Quarter

Hourly Weather History & Observations

Time (MST) Temp. Windchill Dew Point Humidity Pressure Visibility Wind Dir Wind Speed Gust Speed Precip Events Conditions
12:53 AM 39.0 °F 29.0 °F 23.0 °F 53% 30.17 in 10.0 mi West 20.7 mph 29.9 mph N/A   Clear
1:53 AM 39.9 °F 29.7 °F 21.9 °F 49% 30.16 in 10.0 mi WNW 23.0 mph 35.7 mph N/A   Clear
2:53 AM 34.0 °F 28.8 °F 21.9 °F 61% 30.20 in 10.0 mi SSW 5.8 mph - N/A   Clear
3:53 AM 37.9 °F 29.6 °F 21.9 °F 53% 30.20 in 10.0 mi WSW 13.8 mph - N/A   Clear
4:53 AM 37.9 °F 28.2 °F 21.9 °F 53% 30.18 in 10.0 mi West 18.4 mph - N/A   Clear
5:53 AM 37.9 °F 30.5 °F 21.9 °F 53% 30.18 in 10.0 mi West 11.5 mph - N/A   Clear
6:53 AM 30.0 °F 25.2 °F 19.9 °F 66% 30.22 in 10.0 mi Variable 4.6 mph - N/A   Clear
8:53 AM 37.9 °F 33.5 °F 23.0 °F 55% 30.24 in 10.0 mi SSE 5.8 mph - N/A   Clear
9:53 AM 46.0 °F 41.4 °F 21.9 °F 39% 30.21 in 10.0 mi SW 9.2 mph - N/A   Clear
10:53 AM 50.0 °F - 21.0 °F 32% 30.19 in 10.0 mi South 15.0 mph - N/A   Clear
11:53 AM 55.0 °F - 19.0 °F 24% 30.15 in 10.0 mi South 15.0 mph 23.0 mph N/A   Clear
12:53 PM 57.0 °F - 17.1 °F 21% 30.09 in 10.0 mi South 18.4 mph 25.3 mph N/A   Clear
1:53 PM 60.1 °F - 16.0 °F 18% 30.05 in 10.0 mi SW 15.0 mph - N/A   Clear
2:53 PM 61.0 °F - 15.1 °F 17% 30.05 in 10.0 mi SSW 16.1 mph - N/A   Clear
3:53 PM 57.9 °F - 15.1 °F 19% 30.04 in 10.0 mi SSW 10.4 mph - N/A   Clear
4:53 PM 50.0 °F - 15.1 °F 25% 30.04 in 10.0 mi South 5.8 mph - N/A   Clear
5:53 PM 41.0 °F 35.8 °F 15.1 °F 35% 30.06 in 10.0 mi SSE 8.1 mph - N/A   Clear
6:53 PM 44.1 °F 38.1 °F 17.1 °F 34% 30.06 in 10.0 mi SSE 11.5 mph - N/A   Clear
7:53 PM 35.1 °F 31.0 °F 17.1 °F 48% 30.06 in 10.0 mi ESE 4.6 mph - N/A   Clear
8:53 PM 34.0 °F 26.0 °F 19.9 °F 56% 30.04 in 10.0 mi ESE 10.4 mph - N/A   Clear
9:53 PM 36.0 °F 28.5 °F 21.0 °F 55% 29.99 in 10.0 mi ESE 10.4 mph - N/A   Clear
10:53 PM 28.0 °F 19.3 °F 19.9 °F 72% 29.99 in 10.0 mi East 9.2 mph - N/A   Clear
11:53 PM 30.0 °F 20.0 °F 21.0 °F 69% 29.94 in 10.0 mi ESE 12.7 mph - N/A   Clear